User: anonymous   Login
Location: Stull Observatory
(42.2506°N, 77.7903°W)
Time: 07:08:28
(UTC-05:00)
Language:

Abrixas rocket - Orbit

View from above orbital plane
View from above orbital plane
View from above satellite
View from above satellite

Ground track
Ground track

The orbit data is extracted from the following two-line orbital elements,

1 25723U 99022C   14331.51160422  .00017800  00000-0  53088-3 0  8110
2 25723 048.4231 038.8811 0016787 274.2183 171.4820 15.34484921862200
Epoch (UTC): 27 November 2014 12:16:42
Eccentricity: 0.0016787
inclination: 48.4231°
perigee height: 451 km
apogee height: 474 km
right ascension of ascending node: 38.8811°
argument of perigee: 274.2183°
revolutions per day: 15.34484921
mean anomaly at epoch: 171.4820°
orbit number at epoch: 86220

The dashed part of the orbit path shows where the satellite is in the earth's shadow,  

DLR